WZZ296 LIRF-LHBP

Flight info

Callsign WZZ296
Flight time N/A
Altitude 37000
Route OKUNO DCT ATRUP DCT SAL DCT KOPRY DCT ULZAK
Aircraft A321/M-SDE1E2E3FGIJ1J4RWXY/LB1

Departure

Time 2026-05-04 21:11
Airport Rome–Fiumicino Leonardo da Vinci International Airport (LIRF)

Arrival

Time N/A
Airport Budapest Liszt Ferenc International Airport (LHBP)
Time Latitude Longitude Altitude Speed Heading
2026-05-04 20:38 41.79612 12.25946 16 ft 0 kts 296°
2026-05-04 20:59 41.79607 12.25960 15 ft 4 kts 296°
2026-05-04 20:59 41.79598 12.25987 16 ft 4 kts 297°
2026-05-04 21:00 41.79583 12.26011 14 ft 4 kts 342°
2026-05-04 21:00 41.79561 12.26010 15 ft 3 kts 25°
2026-05-04 21:00 41.79552 12.26005 15 ft 0 kts 25°
2026-05-04 21:04 41.79555 12.26007 16 ft 1 kts 25°
2026-05-04 21:04 41.79571 12.26016 14 ft 4 kts 25°
2026-05-04 21:05 41.79603 12.26025 0 ft 7 kts
2026-05-04 21:05 41.79659 12.26046 16 ft 9 kts 25°
2026-05-04 21:05 41.79723 12.26087 14 ft 11 kts 25°
2026-05-04 21:05 41.79773 12.26048 14 ft 10 kts 296°
2026-05-04 21:06 41.79804 12.25957 14 ft 12 kts 295°
2026-05-04 21:06 41.79841 12.25853 14 ft 9 kts 295°
2026-05-04 21:06 41.79893 12.25836 14 ft 10 kts 20°
2026-05-04 21:06 41.79960 12.25876 14 ft 12 kts 24°
2026-05-04 21:07 41.80039 12.25925 15 ft 13 kts 25°
2026-05-04 21:07 41.80130 12.25981 16 ft 15 kts 25°
2026-05-04 21:07 41.80222 12.26038 14 ft 15 kts 25°
2026-05-04 21:07 41.80323 12.26100 14 ft 17 kts 24°
2026-05-04 21:08 41.80431 12.26166 16 ft 17 kts 22°
2026-05-04 21:08 41.80527 12.26235 16 ft 17 kts 64°
2026-05-04 21:08 41.80570 12.26389 16 ft 18 kts 70°
2026-05-04 21:08 41.80617 12.26558 16 ft 20 kts 69°
2026-05-04 21:09 41.80666 12.26738 17 ft 21 kts 70°
2026-05-04 21:09 41.80720 12.26934 15 ft 19 kts 70°
2026-05-04 21:09 41.80779 12.27044 13 ft 15 kts 13°
2026-05-04 21:09 41.80886 12.27004 13 ft 17 kts 340°
2026-05-04 21:10 41.80958 12.26923 13 ft 7 kts 253°
2026-05-04 21:10 41.80941 12.26862 13 ft 23 kts 249°
2026-05-04 21:10 41.80782 12.26290 19 ft 105 kts 250°
2026-05-04 21:10 41.80449 12.25085 19 ft 167 kts 249°
2026-05-04 21:11 41.80037 12.23578 624 ft 172 kts 247°
2026-05-04 21:11 41.79608 12.22075 1427 ft 172 kts 245°
2026-05-04 21:11 41.79017 12.20654 1916 ft 184 kts 224°
2026-05-04 21:11 41.77992 12.19497 2328 ft 197 kts 216°
2026-05-04 21:12 41.76915 12.18347 3011 ft 199 kts 216°
2026-05-04 21:12 41.75798 12.17280 3611 ft 201 kts 203°
2026-05-04 21:12 41.74439 12.16858 4125 ft 208 kts 182°
2026-05-04 21:12 41.72899 12.16895 4422 ft 234 kts 179°
2026-05-04 21:13 41.71205 12.16966 4975 ft 251 kts 179°
2026-05-04 21:13 41.69438 12.17048 5750 ft 257 kts 179°
2026-05-04 21:13 41.67637 12.17134 6600 ft 261 kts 179°
2026-05-04 21:13 41.65804 12.17221 7394 ft 265 kts 179°
2026-05-04 21:14 41.63945 12.17307 8192 ft 270 kts 179°
2026-05-04 21:14 41.62053 12.17396 8996 ft 274 kts 179°
2026-05-04 21:14 41.60133 12.17487 9800 ft 278 kts 179°
2026-05-04 21:14 41.58176 12.17582 10477 ft 287 kts 179°
2026-05-04 21:15 41.56100 12.17679 10732 ft 311 kts 179°
2026-05-04 21:15 41.53916 12.18226 11062 ft 331 kts 157°
2026-05-04 21:15 41.52102 12.20111 11663 ft 345 kts 129°
2026-05-04 21:15 41.51084 12.23032 12327 ft 355 kts 102°
2026-05-04 21:16 41.50861 12.26339 13026 ft 361 kts 91°
2026-05-04 21:16 41.50958 12.29709 13733 ft 366 kts 86°
2026-05-04 21:16 41.51208 12.33112 14368 ft 371 kts 81°
2026-05-04 21:16 41.51952 12.36421 14984 ft 376 kts 65°
2026-05-04 21:17 41.53233 12.39469 15621 ft 379 kts 54°
2026-05-04 21:17 41.54948 12.42145 16266 ft 381 kts 41°
2026-05-04 21:17 41.57079 12.44243 16921 ft 382 kts 26°
2026-05-04 21:17 41.59438 12.45791 17542 ft 385 kts 23°
2026-05-04 21:18 41.61876 12.47315 18166 ft 389 kts 22°
2026-05-04 21:18 41.64351 12.48834 18727 ft 394 kts 22°
2026-05-04 21:18 41.66856 12.50360 19285 ft 397 kts 22°
2026-05-04 21:18 41.69381 12.51904 19867 ft 400 kts 22°
2026-05-04 21:19 41.71920 12.53470 20460 ft 403 kts 22°
2026-05-04 21:19 41.74477 12.55058 21055 ft 406 kts 22°
2026-05-04 21:19 41.77047 12.56659 21650 ft 409 kts 22°
2026-05-04 21:19 41.79632 12.58289 22226 ft 413 kts 25°
2026-05-04 21:20 41.82065 12.60279 22784 ft 418 kts 33°
2026-05-04 21:20 41.84460 12.62527 23352 ft 421 kts 33°
2026-05-04 21:20 41.86870 12.64791 23871 ft 424 kts 33°
2026-05-04 21:20 41.89294 12.67070 24312 ft 427 kts 32°
2026-05-04 21:21 41.91741 12.69370 24751 ft 430 kts 32°
2026-05-04 21:21 41.94200 12.71681 25171 ft 434 kts 32°
2026-05-04 21:21 41.96679 12.74020 25587 ft 437 kts 32°
2026-05-04 21:21 41.99171 12.76376 26014 ft 439 kts 32°
2026-05-04 21:22 42.01606 12.78798 26432 ft 444 kts 37°
2026-05-04 21:22 42.03809 12.81737 26862 ft 451 kts 47°
2026-05-04 21:22 42.05654 12.85183 27255 ft 457 kts 57°
2026-05-04 21:22 42.07227 12.88926 27641 ft 461 kts 58°
2026-05-04 21:23 42.08805 12.92697 28011 ft 464 kts 57°
2026-05-04 21:23 42.10401 12.96489 28391 ft 467 kts 57°
2026-05-04 21:23 42.11993 13.00324 28767 ft 471 kts 58°
2026-05-04 21:23 42.13532 13.04169 29082 ft 475 kts 59°
2026-05-04 21:24 42.15069 13.08123 29456 ft 478 kts 59°
2026-05-04 21:24 42.16599 13.12122 29821 ft 481 kts 59°
2026-05-04 21:24 42.18132 13.16146 30182 ft 484 kts 59°
2026-05-04 21:24 42.19679 13.20181 30526 ft 486 kts 58°
2026-05-04 21:25 42.21244 13.24232 30838 ft 488 kts 58°
2026-05-04 21:25 42.22822 13.28298 31155 ft 491 kts 58°
2026-05-04 21:25 42.24413 13.32383 31473 ft 493 kts 58°
2026-05-04 21:25 42.26012 13.36490 31809 ft 495 kts 58°
2026-05-04 21:26 42.27586 13.40548 32252 ft 494 kts 58°
2026-05-04 21:26 42.29173 13.44660 32691 ft 493 kts 58°
2026-05-04 21:26 42.30750 13.48769 33114 ft 493 kts 58°
2026-05-04 21:26 42.32329 13.52878 33555 ft 491 kts 57°
2026-05-04 21:27 42.34126 13.56751 34037 ft 483 kts 48°
2026-05-04 21:27 42.36268 13.60199 34436 ft 475 kts 39°
2026-05-04 21:27 42.38698 13.63163 34829 ft 467 kts 31°
2026-05-04 21:27 42.41322 13.65711 35202 ft 463 kts 29°
2026-05-04 21:28 42.43911 13.68177 35612 ft 461 kts 29°
2026-05-04 21:28 42.46521 13.70679 36023 ft 459 kts 30°
2026-05-04 21:28 42.49114 13.73183 36432 ft 457 kts 30°
2026-05-04 21:28 42.51697 13.75685 36842 ft 455 kts 30°
2026-05-04 21:29 42.54270 13.78178 37072 ft 455 kts 30°
2026-05-04 21:29 42.56838 13.80662 37114 ft 452 kts 30°
2026-05-04 21:29 42.61940 13.85604 37099 ft 450 kts 30°
2026-05-04 21:30 42.66991 13.90507 37110 ft 448 kts 30°
2026-05-04 21:30 42.72061 13.95430 37105 ft 448 kts 30°
2026-05-04 21:31 42.79662 14.02824 37121 ft 448 kts 30°
2026-05-04 21:32 42.84695 14.07738 37117 ft 448 kts 30°
2026-05-04 21:32 42.89763 14.12700 37117 ft 449 kts 30°
2026-05-04 21:33 42.94835 14.17672 37127 ft 449 kts 30°
2026-05-04 21:33 42.99907 14.22650 37133 ft 449 kts 30°
2026-05-04 21:34 43.04932 14.27598 37127 ft 448 kts 30°
2026-05-04 21:34 43.09974 14.32574 37126 ft 447 kts 30°
2026-05-04 21:35 43.15009 14.37553 37121 ft 446 kts 30°
2026-05-04 21:35 43.20037 14.42536 37134 ft 446 kts 30°
2026-05-04 21:36 43.25024 14.47485 37123 ft 446 kts 30°
2026-05-04 21:36 43.30042 14.52476 37146 ft 445 kts 30°
2026-05-04 21:37 43.35064 14.57476 37132 ft 446 kts 30°
2026-05-04 21:37 43.40083 14.62480 37135 ft 446 kts 30°
2026-05-04 21:38 43.45069 14.67467 37128 ft 446 kts 30°
2026-05-04 21:38 43.50079 14.72511 37135 ft 446 kts 31°
2026-05-04 21:39 43.55101 14.77555 37136 ft 447 kts 31°
2026-05-04 21:39 43.60120 14.82601 37134 ft 447 kts 31°
2026-05-04 21:40 43.65141 14.87668 37139 ft 447 kts 31°
2026-05-04 21:40 43.70128 14.92718 37139 ft 447 kts 31°
2026-05-04 21:41 43.75142 14.97813 37133 ft 447 kts 31°
2026-05-04 21:41 43.80147 15.02900 37134 ft 447 kts 31°
2026-05-04 21:42 43.85157 15.07985 37137 ft 446 kts 31°
2026-05-04 21:42 43.90122 15.13046 37141 ft 446 kts 31°
2026-05-04 21:43 43.95221 15.17885 37144 ft 440 kts 23°
2026-05-04 21:43 44.00619 15.21903 37156 ft 441 kts 23°
2026-05-04 21:44 44.06033 15.25934 37154 ft 441 kts 23°
2026-05-04 21:44 44.11402 15.29951 37154 ft 442 kts 24°
2026-05-04 21:45 44.16814 15.34021 37165 ft 442 kts 24°
2026-05-04 21:45 44.22228 15.38089 37154 ft 443 kts 24°
2026-05-04 21:46 44.27651 15.42182 37149 ft 443 kts 24°
2026-05-04 21:46 44.33044 15.46257 37175 ft 444 kts 24°
2026-05-04 21:47 44.38478 15.50365 37167 ft 444 kts 24°
2026-05-04 21:47 44.43918 15.54488 37175 ft 445 kts 24°
2026-05-04 21:48 44.49355 15.58613 37167 ft 445 kts 24°
2026-05-04 21:48 44.54792 15.62745 37173 ft 444 kts 25°
2026-05-04 21:49 44.60182 15.66869 37169 ft 444 kts 25°
2026-05-04 21:49 44.65606 15.71023 37153 ft 444 kts 25°
2026-05-04 21:50 44.71016 15.75162 37159 ft 444 kts 25°
2026-05-04 21:50 44.75529 15.78622 37152 ft 444 kts 25°
2026-05-04 21:51 44.81826 15.83475 37154 ft 444 kts 25°
2026-05-04 21:51 44.87243 15.87661 37144 ft 444 kts 25°
2026-05-04 21:52 44.91751 15.91144 37128 ft 444 kts 25°
2026-05-04 21:52 44.97160 15.95326 37117 ft 444 kts 26°
2026-05-04 21:53 45.03454 16.00207 37117 ft 444 kts 26°
2026-05-04 21:53 45.07992 16.03733 37115 ft 444 kts 26°
2026-05-04 21:54 45.13364 16.07928 37101 ft 444 kts 26°
2026-05-04 21:54 45.18777 16.12164 37096 ft 444 kts 26°
2026-05-04 21:55 45.25063 16.17081 37100 ft 444 kts 26°
2026-05-04 21:55 45.29595 16.20625 37091 ft 444 kts 26°
2026-05-04 21:56 45.34960 16.24843 37083 ft 444 kts 26°
2026-05-04 21:56 45.40354 16.29101 37091 ft 443 kts 26°
2026-05-04 21:57 45.45739 16.33351 37083 ft 443 kts 26°
2026-05-04 21:57 45.51132 16.37611 37076 ft 443 kts 26°
2026-05-04 21:58 45.56521 16.41885 37071 ft 443 kts 26°
2026-05-04 21:58 45.61876 16.46151 37067 ft 443 kts 26°
2026-05-04 21:59 45.67263 16.50446 37069 ft 443 kts 26°
2026-05-04 21:59 45.72651 16.54748 37061 ft 443 kts 26°
2026-05-04 22:00 45.78041 16.59062 37066 ft 443 kts 27°
2026-05-04 22:00 45.83424 16.63370 37065 ft 443 kts 27°
2026-05-04 22:01 45.88767 16.67670 37067 ft 443 kts 27°
2026-05-04 22:01 45.94143 16.72015 37061 ft 443 kts 27°
2026-05-04 22:02 45.99516 16.76357 37059 ft 443 kts 27°
2026-05-04 22:02 46.04879 16.80695 37057 ft 443 kts 27°